#�ϑ�����,���ϕ���,���ϕ���,�ő啗��,�ő啗����������,�ő�u�ԕ���,�ő�u�ԕ�����������
#(�N����),(m/s)   ,(16����),(m/s)   ,(16����)        ,(m/s)       ,(16����)            
2013/3/21 0:01,4.3,16,4.3,16,6.5,16
2013/3/21 0:02,4.6,16,4.6,16,14.8,16
2013/3/21 0:03,4.9,16,4.9,16,12.5,16
2013/3/21 0:04,4.6,16,4.8,16,8.4,16
2013/3/21 0:05,4.3,16,4.6,16,6.7,16
2013/3/21 0:06,4.5,16,4.5,16,8.4,16
2013/3/21 0:07,4.8,16,4.8,16,7.9,2
2013/3/21 0:08,5.1,16,5.1,16,9.5,16
2013/3/21 0:09,5.2,16,5.2,16,8.5,15
2013/3/21 0:10,5.6,16,5.6,16,10,15
2013/3/21 0:11,5.5,16,5.6,16,7.1,16
2013/3/21 0:12,5.1,16,5.5,16,7.7,1
2013/3/21 0:13,4.9,16,5.1,16,8.4,16
2013/3/21 0:14,5.2,16,5.2,16,14.9,15
2013/3/21 0:15,5.3,16,5.4,16,9.8,14
2013/3/21 0:16,5.2,16,5.3,16,7.1,16
2013/3/21 0:17,5.1,16,5.2,16,9.4,16
2013/3/21 0:18,5,16,5.1,16,9.8,15
2013/3/21 0:19,4.8,16,5,16,8.6,16
2013/3/21 0:20,4.6,16,4.8,16,7.7,15
2013/3/21 0:21,4.7,16,4.7,16,8.5,15
2013/3/21 0:22,4.6,16,4.7,16,6.3,14
2013/3/21 0:23,4.3,15,4.6,16,2.9,14
2013/3/21 0:24,3.9,15,4.3,16,6.5,16
2013/3/21 0:25,3.7,15,3.9,16,5.6,15
2013/3/21 0:26,3.6,15,3.7,16,5.6,15
2013/3/21 0:27,3.3,15,3.5,16,3.1,14
2013/3/21 0:28,3.2,15,3.3,16,8.1,14
2013/3/21 0:29,3.4,15,3.4,16,9.3,15
2013/3/21 0:30,3.4,15,3.4,16,8.6,14
2013/3/21 0:31,3.2,15,3.5,16,5,1
2013/3/21 0:32,3.2,15,3.2,15,6.1,16
2013/3/21 0:33,3.5,15,3.5,15,7.1,16
2013/3/21 0:34,3.7,16,3.7,15,8.3,15
2013/3/21 0:35,4,16,4,16,9.1,16
2013/3/21 0:36,4.1,16,4.1,16,6.2,16
2013/3/21 0:37,4.3,15,4.3,15,8.5,15
2013/3/21 0:38,4.1,16,4.3,15,4.7,14
2013/3/21 0:39,3.7,16,4.1,15,2,2
2013/3/21 0:40,3.4,16,3.7,15,4.1,16
2013/3/21 0:41,3.5,16,3.5,15,4.3,16
2013/3/21 0:42,3.5,16,3.5,15,5.6,13
2013/3/21 0:43,3.5,16,3.5,15,6.9,16
2013/3/21 0:44,3.5,15,3.5,15,5.7,16
2013/3/21 0:45,3.3,15,3.4,15,6.1,16
2013/3/21 0:46,3.3,15,3.3,15,7.2,15
2013/3/21 0:47,3.3,15,3.4,15,7,15
2013/3/21 0:48,3.1,15,3.3,16,5.1,16
2013/3/21 0:49,3.3,15,3.3,16,3.7,14
2013/3/21 0:50,3.2,15,3.3,16,3.7,12
2013/3/21 0:51,3.1,15,3.2,15,2.5,4
2013/3/21 0:52,2.8,15,3.1,16,1.1,9
2013/3/21 0:53,2.5,15,2.8,16,2.5,14
2013/3/21 0:54,2.3,15,2.5,15,2.6,14
2013/3/21 0:55,2.1,14,2.3,15,3.9,9
2013/3/21 0:56,1.8,14,2.1,15,3.3,4
2013/3/21 0:57,1.7,14,1.8,15,2.9,4
2013/3/21 0:58,1.6,13,1.7,15,2.4,10
2013/3/21 0:59,1.7,12,1.7,15,6.4,10
2013/3/21 1:00,1.7,10,1.7,15,3.7,15
2013/3/21 1:01,1.9,12,1.9,15,5.4,16
2013/3/21 1:02,2.1,13,2.1,15,12.5,16
2013/3/21 1:03,2.3,14,2.3,15,7.5,16
2013/3/21 1:04,2.6,15,2.6,15,7.1,16
2013/3/21 1:05,2.7,16,2.7,16,7.1,15
2013/3/21 1:06,2.8,16,2.8,16,5.4,16
2013/3/21 1:07,3,15,3,15,6.5,15
2013/3/21 1:08,3.1,15,3.1,15,4.7,16
2013/3/21 1:09,3.1,15,3.2,15,4.7,13
2013/3/21 1:10,3.1,15,3.2,15,3.1,14
2013/3/21 1:11,3.1,15,3.2,15,6.1,14
2013/3/21 1:12,3,15,3.2,15,4.9,15
2013/3/21 1:13,3,15,3.1,15,9.2,16
2013/3/21 1:14,3,15,3.1,15,8.2,16
2013/3/21 1:15,2.9,15,3,15,4.5,15
2013/3/21 1:16,3.1,15,3.1,15,7.2,15
2013/3/21 1:17,3.2,15,3.2,15,9.4,16
2013/3/21 1:18,3.2,15,3.2,15,6.9,1
2013/3/21 1:19,3.1,16,3.2,15,3.5,14
2013/3/21 1:20,3.2,16,3.2,15,6.9,1
2013/3/21 1:21,3.3,16,3.3,16,7.8,1
2013/3/21 1:22,3.7,16,3.7,16,8.2,16
2013/3/21 1:23,3.6,16,3.8,16,6.3,16
2013/3/21 1:24,3.6,16,3.6,16,8.5,16
2013/3/21 1:25,3.8,16,3.8,16,8.1,14
2013/3/21 1:26,3.7,16,3.8,16,4.4,11
2013/3/21 1:27,3.6,16,3.8,16,6.4,12
2013/3/21 1:28,3.6,15,3.6,16,5.6,14
2013/3/21 1:29,3.6,15,3.6,16,3.5,12
2013/3/21 1:30,3.7,15,3.7,16,5.7,16
2013/3/21 1:31,3.8,15,3.8,16,8.2,1
2013/3/21 1:32,4,15,4,15,11.6,16
2013/3/21 1:33,3.9,14,3.9,15,5.5,15
2013/3/21 1:34,3.6,14,3.8,15,1.8,15
2013/3/21 1:35,3.1,14,3.6,15,1.8,12
2013/3/21 1:36,3.1,14,3.1,15,3.1,8
2013/3/21 1:37,2.8,14,3,15,2.5,8
2013/3/21 1:38,2.7,13,2.8,15,3,9
2013/3/21 1:39,2.6,13,2.7,15,3.1,12
2013/3/21 1:40,2.4,13,2.6,15,2.6,1
2013/3/21 1:41,2.4,14,2.5,15,5.8,1
2013/3/21 1:42,2.2,13,2.3,15,8.3,16
2013/3/21 1:43,2.5,14,2.5,14,10.9,16
2013/3/21 1:44,2.7,14,2.7,14,7.1,1
2013/3/21 1:45,2.9,15,2.9,14,7.5,16
2013/3/21 1:46,3.2,16,3.2,16,6.4,7
2013/3/21 1:47,3.5,1,3.5,1,8.1,7
2013/3/21 1:48,3.7,2,3.7,1,5.8,4
2013/3/21 1:49,4.2,2,4.2,2,13.4,16
2013/3/21 1:50,4.8,1,4.8,1,12.2,15
2013/3/21 1:51,5.3,1,5.3,1,15.2,16
2013/3/21 1:52,5.1,1,5.3,1,6.2,14
2013/3/21 1:53,4.6,2,5.1,1,2,3
2013/3/21 1:54,4.4,2,4.5,1,1.8,4
2013/3/21 1:55,4.2,3,4.3,1,2.7,8
2013/3/21 1:56,4.1,3,4.3,1,4.4,8
2013/3/21 1:57,3.8,3,4.1,1,2.6,9
2013/3/21 1:58,3.7,3,3.8,1,3.6,4
2013/3/21 1:59,3.2,5,3.7,1,4.8,6
2013/3/21 2:00,2.6,6,3.1,1,3.9,7
2013/3/21 2:01,1.8,7,2.5,1,2.6,8
2013/3/21 2:02,2,7,2,1,7.4,6
2013/3/21 2:03,2.4,7,2.4,2,7.5,8
2013/3/21 2:04,2.5,7,2.5,2,7.6,7
2013/3/21 2:05,2.8,7,2.8,3,7.4,5
2013/3/21 2:06,2.8,7,2.8,3,5.6,3
2013/3/21 2:07,2.9,6,2.9,3,4.8,3
2013/3/21 2:08,3.1,6,3.1,3,10.3,15
2013/3/21 2:09,3.3,6,3.3,6,6.7,15
2013/3/21 2:10,3.5,4,3.5,4,7.5,16
2013/3/21 2:11,3.7,2,3.7,3,6.7,16
2013/3/21 2:12,3.7,1,3.7,3,10.6,13
2013/3/21 2:13,3.6,16,3.6,3,6.7,14
2013/3/21 2:14,3.5,15,3.6,3,3.2,12
2013/3/21 2:15,3.1,15,3.4,3,1,13
2013/3/21 2:16,3.1,15,3.1,3,3.6,15
2013/3/21 2:17,3.1,15,3.1,3,4.9,15
2013/3/21 2:18,3.2,15,3.2,3,8.4,16
2013/3/21 2:19,3.2,15,3.2,3,7.2,16
2013/3/21 2:20,3.4,15,3.4,3,9.7,15
2013/3/21 2:21,3.6,15,3.6,2,8.3,16
2013/3/21 2:22,3.7,15,3.7,15,10.1,16
2013/3/21 2:23,3.9,16,3.9,16,8.3,1
2013/3/21 2:24,4.3,16,4.3,16,8.1,16
2013/3/21 2:25,4.6,16,4.6,16,7,1
2013/3/21 2:26,4.9,16,4.9,16,7.6,16
2013/3/21 2:27,5.1,16,5.1,16,7.4,16
2013/3/21 2:28,5.2,16,5.2,16,8.3,15
2013/3/21 2:29,5.1,16,5.1,16,6.2,10
2013/3/21 2:30,4.8,16,5.1,16,5.7,14
2013/3/21 2:31,4.4,16,4.8,16,4.3,7
2013/3/21 2:32,4,15,4.4,16,5.7,9
2013/3/21 2:33,3.8,15,3.9,16,8.4,15
2013/3/21 2:34,3.8,15,3.9,16,8.7,15
2013/3/21 2:35,3.6,15,3.8,16,3.5,2
2013/3/21 2:36,3.3,15,3.5,16,4.8,13
2013/3/21 2:37,3,14,3.3,16,3.2,13
2013/3/21 2:38,2.6,14,3,16,2.2,13
2013/3/21 2:39,2.2,14,2.6,16,1.3,13
2013/3/21 2:40,2.1,14,2.2,16,2.4,15
2013/3/21 2:41,2.1,14,2.1,16,3.8,15
2013/3/21 2:42,2.1,14,2.2,15,3.9,16
2013/3/21 2:43,2.1,14,2.1,15,4.3,1
2013/3/21 2:44,1.7,14,2,15,3.8,1
2013/3/21 2:45,1.8,14,1.8,15,3.3,16
2013/3/21 2:46,1.8,14,1.9,15,5,15
2013/3/21 2:47,2,14,2,14,5.7,14
2013/3/21 2:48,2.3,15,2.3,14,6.1,15
2013/3/21 2:49,2.6,15,2.6,15,4.7,15
2013/3/21 2:50,2.7,15,2.7,15,6.1,1
2013/3/21 2:51,2.9,16,2.9,16,6,1
2013/3/21 2:52,3,16,3,16,6.3,16
2013/3/21 2:53,3,16,3.1,16,3.9,16
2013/3/21 2:54,3.1,16,3.1,16,4.2,16
2013/3/21 2:55,3,16,3,16,4.9,12
2013/3/21 2:56,3.2,15,3.2,15,6.3,12
2013/3/21 2:57,3,15,3.2,15,3.8,13
2013/3/21 2:58,2.7,15,2.9,15,1.8,16
2013/3/21 2:59,2.5,16,2.6,15,2.2,3
2013/3/21 3:00,2.3,16,2.5,15,1.4,4
2013/3/21 3:01,1.9,16,2.2,15,0.9,16
2013/3/21 3:02,1.8,16,1.9,15,3.3,2
2013/3/21 3:03,1.7,16,1.7,15,3.5,3
2013/3/21 3:04,1.7,16,1.7,15,5.6,15
2013/3/21 3:05,1.8,16,1.9,15,5.2,16
2013/3/21 3:06,1.5,1,1.8,15,3.3,16
2013/3/21 3:07,1.6,1,1.6,15,3.9,15
2013/3/21 3:08,1.7,1,1.7,15,3.3,16
2013/3/21 3:09,1.7,1,1.7,16,3.5,14
2013/3/21 3:10,1.9,16,1.9,16,3.3,15
2013/3/21 3:11,1.9,16,1.9,16,1.9,4
2013/3/21 3:12,1.9,16,1.9,16,1.6,10
2013/3/21 3:13,1.9,15,1.9,16,3.3,11
2013/3/21 3:14,2,15,2,15,3.8,15
2013/3/21 3:15,1.9,15,1.9,15,4.4,15
2013/3/21 3:16,2,15,2,15,3.7,14
2013/3/21 3:17,1.8,14,1.9,15,2.1,13
2013/3/21 3:18,1.7,14,1.8,15,2,12
2013/3/21 3:19,1.6,14,1.7,15,0.9,12
2013/3/21 3:20,1.6,14,1.6,15,2.6,3
2013/3/21 3:21,1.6,14,1.6,15,3,2
2013/3/21 3:22,1.8,15,1.8,15,5,1
2013/3/21 3:23,1.8,15,1.8,15,3.7,1
2013/3/21 3:24,1.8,16,1.8,15,3.9,1
2013/3/21 3:25,1.8,16,1.8,15,4.4,16
2013/3/21 3:26,1.8,16,1.8,15,3.8,15
2013/3/21 3:27,1.8,16,1.9,16,2.5,16
2013/3/21 3:28,2.2,1,2.2,1,8.5,16
2013/3/21 3:29,2.5,1,2.5,1,7.1,16
2013/3/21 3:30,2.8,16,2.8,16,6.3,15
2013/3/21 3:31,3,16,3,16,7.1,15
2013/3/21 3:32,3.2,16,3.2,16,5.7,16
2013/3/21 3:33,3.2,16,3.2,16,3.3,3
2013/3/21 3:34,3.1,1,3.2,16,3.3,5
2013/3/21 3:35,3,16,3.1,16,3.7,9
2013/3/21 3:36,2.9,16,3.1,16,3.2,9
2013/3/21 3:37,2.9,16,2.9,16,2.4,15
2013/3/21 3:38,2.7,16,2.9,16,3.2,16
2013/3/21 3:39,2.5,1,2.6,16,4.2,1
2013/3/21 3:40,2.2,1,2.5,16,3,1
2013/3/21 3:41,2.1,1,2.2,16,4.2,15
2013/3/21 3:42,2,16,2.1,16,5.8,16
2013/3/21 3:43,1.9,15,2,16,2.4,16
2013/3/21 3:44,1.9,15,1.9,1,3.8,15
2013/3/21 3:45,1.9,16,1.9,16,4.8,16
2013/3/21 3:46,2.1,16,2.1,16,4.2,16
2013/3/21 3:47,2.2,16,2.2,16,3.9,16
2013/3/21 3:48,2.2,16,2.2,16,4.5,15
2013/3/21 3:49,2.2,15,2.2,1,3.8,14
2013/3/21 3:50,2.4,15,2.4,15,4.3,14
2013/3/21 3:51,2.6,15,2.6,15,8.2,15
2013/3/21 3:52,2.8,15,2.8,15,8.3,16
2013/3/21 3:53,3.1,15,3.1,15,7.2,16
2013/3/21 3:54,3.5,15,3.5,15,7.9,15
2013/3/21 3:55,3.6,15,3.6,15,5.1,15
2013/3/21 3:56,3.8,15,3.8,15,8.2,14
2013/3/21 3:57,4,15,4,15,9.1,14
2013/3/21 3:58,4.1,15,4.1,15,5.8,16
2013/3/21 3:59,4.2,15,4.2,15,4.2,15
2013/3/21 4:00,4,15,4.1,15,3.2,16
2013/3/21 4:01,3.8,15,4,15,5.8,15
2013/3/21 4:02,3.6,15,3.8,15,7.6,14
2013/3/21 4:03,3.7,15,3.7,15,7,16
2013/3/21 4:04,3.5,15,3.6,15,6.8,16
2013/3/21 4:05,3.6,15,3.6,15,6.3,15
2013/3/21 4:06,3.5,15,3.7,15,7,1
2013/3/21 4:07,3.4,15,3.5,15,3.9,1
2013/3/21 4:08,3.4,15,3.4,15,6.1,1
2013/3/21 4:09,3.5,16,3.5,15,6.8,16
2013/3/21 4:10,3.7,16,3.7,15,4.8,2
2013/3/21 4:11,3.8,16,3.8,15,6,15
2013/3/21 4:12,3.8,16,3.8,16,5.8,16
2013/3/21 4:13,3.7,16,3.8,16,5.2,16
2013/3/21 4:14,3.6,16,3.7,16,6.2,16
2013/3/21 4:15,3.6,16,3.7,16,5.2,15
2013/3/21 4:16,3.5,16,3.6,16,4.1,15
2013/3/21 4:17,3.5,16,3.5,16,5.1,15
2013/3/21 4:18,3.5,16,3.5,16,5.8,14
2013/3/21 4:19,3.5,16,3.5,16,5.2,15
2013/3/21 4:20,3.5,16,3.5,16,5.6,16
2013/3/21 4:21,3.5,16,3.6,16,6.9,16
2013/3/21 4:22,3.5,16,3.5,16,6.9,15
2013/3/21 4:23,3.7,16,3.7,16,7.1,15
2013/3/21 4:24,3.8,16,3.8,16,7.8,15
2013/3/21 4:25,3.9,16,3.9,16,8.5,15
2013/3/21 4:26,4,16,4,16,8.7,15
2013/3/21 4:27,4.1,16,4.1,16,5.8,1
2013/3/21 4:28,3.9,16,4,16,3.5,15
2013/3/21 4:29,3.7,15,3.8,16,5.7,13
2013/3/21 4:30,3.6,15,3.8,16,5.6,13
2013/3/21 4:31,3.5,15,3.6,16,2.7,13
2013/3/21 4:32,3.2,15,3.5,16,3.3,11
2013/3/21 4:33,3,14,3.2,16,3.9,12
2013/3/21 4:34,2.8,14,3,16,4.9,14
2013/3/21 4:35,2.6,14,2.8,16,4.1,15
2013/3/21 4:36,2.4,14,2.6,16,2.9,16
2013/3/21 4:37,2.1,14,2.3,16,0.5,1
2013/3/21 4:38,2,14,2.1,16,2.4,16
2013/3/21 4:39,1.9,14,2,15,1.8,4
2013/3/21 4:40,1.9,15,1.9,15,7.9,16
2013/3/21 4:41,2.1,15,2.1,15,8.3,16
2013/3/21 4:42,2.2,16,2.2,15,5.8,16
2013/3/21 4:43,2.3,16,2.3,14,5.7,15
2013/3/21 4:44,2.2,16,2.3,14,5.8,15
2013/3/21 4:45,2.2,16,2.2,14,3.5,2
2013/3/21 4:46,2.3,16,2.3,14,5.1,16
2013/3/21 4:47,2.5,16,2.5,16,4.3,15
2013/3/21 4:48,2.6,16,2.6,16,3.9,1
2013/3/21 4:49,2.8,16,2.8,16,4.3,15
2013/3/21 4:50,2.5,16,2.7,16,3,2
2013/3/21 4:51,2.4,16,2.4,16,3.6,16
2013/3/21 4:52,2.3,16,2.4,16,3.6,1
2013/3/21 4:53,2.1,16,2.3,16,2.6,1
2013/3/21 4:54,2,16,2.1,16,3.5,2
2013/3/21 4:55,2,16,2,16,3.1,1
2013/3/21 4:56,2,1,2.1,16,6.8,1
2013/3/21 4:57,2.2,1,2.2,16,7.6,2
2013/3/21 4:58,2.3,1,2.3,16,7,1
2013/3/21 4:59,2.3,1,2.3,16,4.9,15
2013/3/21 5:00,2.3,1,2.4,16,3.6,16
2013/3/21 5:01,2.3,1,2.4,16,3.6,16
2013/3/21 5:02,2.4,16,2.4,1,4.9,15
2013/3/21 5:03,2.5,16,2.5,16,4.1,15
2013/3/21 5:04,2.7,16,2.7,16,6.7,15
2013/3/21 5:05,2.9,16,2.9,16,7.7,16
2013/3/21 5:06,3.1,16,3.1,16,11.6,15
2013/3/21 5:07,3.4,16,3.4,16,13.2,15
2013/3/21 5:08,3.7,16,3.7,16,14.1,16
2013/3/21 5:09,4.1,16,4.1,16,11,16
2013/3/21 5:10,4.3,16,4.3,16,6.4,16
2013/3/21 5:11,4.6,16,4.6,16,7.6,15
2013/3/21 5:12,4.8,16,4.8,16,7.5,16
2013/3/21 5:13,5.2,16,5.2,16,11.6,16
2013/3/21 5:14,5.3,16,5.3,16,7.8,16
2013/3/21 5:15,5.1,16,5.2,16,6.1,15
2013/3/21 5:16,4.9,16,5.1,16,6.7,16
2013/3/21 5:17,4.4,16,4.8,16,3.8,14
2013/3/21 5:18,4.2,16,4.4,16,7.1,15
2013/3/21 5:19,3.8,16,4.1,16,5.6,15
2013/3/21 5:20,3.8,15,3.9,16,5,14
2013/3/21 5:21,3.5,15,3.8,16,4.4,14
2013/3/21 5:22,3.2,15,3.5,16,3.2,14
2013/3/21 5:23,2.6,15,3.2,16,1.8,14
2013/3/21 5:24,2.2,15,2.6,16,0.9,2
2013/3/21 5:25,2.2,14,2.3,16,2.9,12
2013/3/21 5:26,2,14,2.1,16,2.2,14
2013/3/21 5:27,2.2,14,2.2,16,8.1,15
2013/3/21 5:28,2.3,14,2.3,16,7.1,16
2013/3/21 5:29,2.8,14,2.8,15,11.7,16
2013/3/21 5:30,3,14,3,15,9.3,16
2013/3/21 5:31,3,15,3,15,5.2,16
2013/3/21 5:32,3.4,15,3.4,15,10,16
2013/3/21 5:33,3.7,15,3.7,15,8.1,16
2013/3/21 5:34,3.9,15,3.9,15,4.1,2
2013/3/21 5:35,3.9,15,3.9,15,5.6,11
2013/3/21 5:36,4.1,16,4.1,16,8.4,16
2013/3/21 5:37,4.2,16,4.3,16,8.4,14
2013/3/21 5:38,4.1,16,4.2,16,5.5,15
2013/3/21 5:39,3.7,15,4,16,6.2,16
2013/3/21 5:40,3.4,16,3.6,16,4.7,16
2013/3/21 5:41,3.2,16,3.3,16,2.2,16
2013/3/21 5:42,2.8,16,3.1,16,2.5,15
2013/3/21 5:43,2.6,16,2.8,16,1.8,1
2013/3/21 5:44,2.7,16,2.7,16,6,14
2013/3/21 5:45,2.7,16,2.8,16,4.8,15
2013/3/21 5:46,2.7,16,2.8,16,9.1,15
2013/3/21 5:47,2.7,16,2.7,16,7.7,15
2013/3/21 5:48,3,16,3,16,11.3,16
2013/3/21 5:49,3.4,16,3.4,15,11.9,15
2013/3/21 5:50,3.9,16,3.9,16,11.9,15
2013/3/21 5:51,4.4,16,4.4,16,11.5,16
2013/3/21 5:52,4.8,16,4.8,16,10.6,16
2013/3/21 5:53,5.1,16,5.1,16,7.7,15
2013/3/21 5:54,5.4,16,5.4,16,10.1,1
2013/3/21 5:55,5.6,16,5.6,16,7,16
2013/3/21 5:56,6,16,6,16,10.9,16
2013/3/21 5:57,5.9,16,6,16,9.2,15
2013/3/21 5:58,5.9,16,5.9,16,12.7,14
2013/3/21 5:59,5.6,16,5.9,16,7.8,15
2013/3/21 6:00,5.4,16,5.7,16,8.9,16
2013/3/21 6:01,5.3,16,5.3,16,8.6,15
2013/3/21 6:02,5.5,16,5.5,16,11.8,16
2013/3/21 6:03,5.6,16,5.6,16,12.3,16
2013/3/21 6:04,5.6,16,5.6,16,11.4,15
2013/3/21 6:05,5.5,16,5.6,16,9,16
2013/3/21 6:06,5.4,16,5.5,16,8.4,16
2013/3/21 6:07,5.3,16,5.4,16,7.7,15
2013/3/21 6:08,5.3,16,5.4,16,8.4,15
2013/3/21 6:09,5.3,16,5.4,16,9.1,1
2013/3/21 6:10,5.5,16,5.5,16,9.2,16
2013/3/21 6:11,5.7,16,5.7,16,10.9,16
2013/3/21 6:12,5.4,16,5.6,16,9.4,15
2013/3/21 6:13,5.6,16,5.6,16,12.3,15
2013/3/21 6:14,5.5,16,5.7,16,9.4,15
2013/3/21 6:15,5.6,16,5.6,16,9.1,16
2013/3/21 6:16,5.9,16,5.9,15,13.3,15
2013/3/21 6:17,5.8,16,5.9,15,5.8,2
2013/3/21 6:18,5.5,16,5.8,15,4.8,16
2013/3/21 6:19,5.2,16,5.5,15,5.2,15
2013/3/21 6:20,5.2,16,5.2,15,9.2,14
2013/3/21 6:21,5,16,5.2,15,8.9,15
2013/3/21 6:22,5.3,16,5.3,15,10.9,16
2013/3/21 6:23,4.9,16,5.3,15,9,15
2013/3/21 6:24,4.8,16,4.9,15,7.4,16
2013/3/21 6:25,4.8,16,4.8,15,12.4,15
2013/3/21 6:26,4.6,16,4.8,16,10.7,16
2013/3/21 6:27,4.8,16,4.8,16,12.2,15
2013/3/21 6:28,5,16,5,16,7.4,15
2013/3/21 6:29,5.1,16,5.2,16,7,16
2013/3/21 6:30,4.8,16,5.1,16,4.8,13
2013/3/21 6:31,4.8,16,4.9,16,8.5,14
2013/3/21 6:32,4.4,16,4.7,16,6.1,13
2013/3/21 6:33,4.5,16,4.5,16,10.9,15
2013/3/21 6:34,4.7,15,4.7,16,10.2,16
2013/3/21 6:35,4.6,15,4.8,16,7.5,14
2013/3/21 6:36,4.5,15,4.6,16,7.4,15
2013/3/21 6:37,4.3,15,4.5,16,8.1,16
2013/3/21 6:38,4.2,15,4.3,16,7.9,15
2013/3/21 6:39,4.3,15,4.3,16,10.3,16
2013/3/21 6:40,4.5,15,4.5,16,8.3,15
2013/3/21 6:41,4.4,15,4.5,15,9.5,16
2013/3/21 6:42,4.7,15,4.7,15,9.3,15
2013/3/21 6:43,4.7,16,4.8,15,11,14
2013/3/21 6:44,4.7,15,4.8,15,11.4,14
2013/3/21 6:45,4.5,16,4.7,15,6.5,16
2013/3/21 6:46,4.5,16,4.5,15,8.6,16
2013/3/21 6:47,4.6,16,4.6,15,7.4,14
2013/3/21 6:48,4.6,16,4.6,15,4.9,15
2013/3/21 6:49,4.5,16,4.5,15,7.8,15
2013/3/21 6:50,4.6,16,4.6,15,7.7,15
2013/3/21 6:51,4.5,16,4.6,15,10.9,16
2013/3/21 6:52,4.4,16,4.6,15,7.1,16
2013/3/21 6:53,4,16,4.3,15,5.1,15
2013/3/21 6:54,3.6,16,3.9,15,6.1,16
2013/3/21 6:55,3.6,16,3.6,16,4.8,16
2013/3/21 6:56,3.5,16,3.7,16,5.5,16
2013/3/21 6:57,3.5,16,3.5,16,7.9,16
2013/3/21 6:58,3.5,16,3.6,16,7.8,16
2013/3/21 6:59,3.2,16,3.5,16,5.1,16
2013/3/21 7:00,3.1,16,3.2,16,7.9,16
2013/3/21 7:01,3.2,16,3.3,16,9,14
2013/3/21 7:02,3.5,16,3.5,16,10.3,15
2013/3/21 7:03,3.8,16,3.8,16,9.3,15
2013/3/21 7:04,3.8,16,3.9,16,3.9,16
2013/3/21 7:05,3.7,16,3.8,16,3.9,15
2013/3/21 7:06,3.6,16,3.7,16,7,13
2013/3/21 7:07,3.5,15,3.6,16,6.3,14
2013/3/21 7:08,3.7,15,3.7,16,7.2,15
2013/3/21 7:09,3.7,15,3.8,16,3.6,15
2013/3/21 7:10,3.5,16,3.6,16,6.4,15
2013/3/21 7:11,3.4,16,3.6,16,7.9,1
2013/3/21 7:12,3.1,16,3.4,16,6,16
2013/3/21 7:13,3.3,16,3.3,16,10.5,14
2013/3/21 7:14,3.5,16,3.5,16,10,15
2013/3/21 7:15,3.7,15,3.7,15,6.5,15
2013/3/21 7:16,3.9,16,3.9,15,6.5,16
2013/3/21 7:17,3.9,16,3.9,15,8.1,15
2013/3/21 7:18,4,16,4,16,7.8,15
2013/3/21 7:19,4.2,16,4.2,16,6.2,15
2013/3/21 7:20,4.5,16,4.5,16,9,16
2013/3/21 7:21,4.5,16,4.5,16,7.9,16
2013/3/21 7:22,4.5,15,4.5,16,7.2,16
2013/3/21 7:23,4,16,4.5,16,4.1,16
2013/3/21 7:24,4.1,15,4.1,16,12.7,14
2013/3/21 7:25,4.2,16,4.3,16,9.1,16
2013/3/21 7:26,4.2,15,4.2,16,8.5,15
2013/3/21 7:27,4.3,15,4.3,16,9,16
2013/3/21 7:28,4.4,15,4.4,16,9.5,15
2013/3/21 7:29,4.5,16,4.5,16,8.7,1
2013/3/21 7:30,4.3,16,4.5,16,6.2,15
2013/3/21 7:31,4.5,15,4.5,16,7.8,16
2013/3/21 7:32,4.4,16,4.5,15,6,16
2013/3/21 7:33,4.8,16,4.8,16,9,15
2013/3/21 7:34,4.6,16,4.9,16,6.3,15
2013/3/21 7:35,4.6,16,4.6,16,6.1,15
2013/3/21 7:36,4.7,16,4.7,16,7.9,16
2013/3/21 7:37,4.6,16,4.7,16,6.2,1
2013/3/21 7:38,4.4,16,4.6,16,5.4,15
2013/3/21 7:39,4.4,16,4.5,16,8.7,16
2013/3/21 7:40,4.7,16,4.7,16,9.8,14
2013/3/21 7:41,4.5,16,4.7,16,6.7,16
2013/3/21 7:42,4.4,16,4.5,16,4.4,1
2013/3/21 7:43,4.3,15,4.4,16,5,13
2013/3/21 7:44,4.4,15,4.4,16,6.4,15
2013/3/21 7:45,4.3,15,4.4,16,6,15
2013/3/21 7:46,4.1,15,4.3,16,4.2,1
2013/3/21 7:47,3.9,15,4.1,16,3.8,15
2013/3/21 7:48,3.8,15,3.9,16,5.8,16
2013/3/21 7:49,3.6,15,3.8,16,6.9,14
2013/3/21 7:50,3.4,15,3.6,16,6.2,15
2013/3/21 7:51,3.4,15,3.4,16,5.6,14
2013/3/21 7:52,3.7,15,3.7,16,8.7,14
2013/3/21 7:53,3.9,16,3.9,15,9.8,14
2013/3/21 7:54,3.7,16,3.9,15,4.1,1
2013/3/21 7:55,3.5,16,3.7,15,4.1,16
2013/3/21 7:56,3.4,15,3.5,15,2.6,12
2013/3/21 7:57,3.6,15,3.6,15,6.9,15
2013/3/21 7:58,3.7,15,3.8,15,6.7,15
2013/3/21 7:59,3.8,15,3.8,15,6.3,15
2013/3/21 8:00,3.8,15,3.8,15,8.9,15
2013/3/21 8:01,3.7,15,3.8,15,5.2,16
2013/3/21 8:02,3.3,15,3.7,15,3.8,16
2013/3/21 8:03,2.9,15,3.2,16,3.1,15
2013/3/21 8:04,3,15,3,15,5.1,16
2013/3/21 8:05,3.2,15,3.2,15,4.9,15
2013/3/21 8:06,3.2,15,3.2,15,7.7,15
2013/3/21 8:07,3.3,15,3.3,15,9.7,16
2013/3/21 8:08,3.3,15,3.4,15,7.9,16
2013/3/21 8:09,3.1,16,3.3,15,3.3,1
2013/3/21 8:10,2.7,16,3,15,3.2,15
2013/3/21 8:11,2.6,16,2.7,15,4.3,1
2013/3/21 8:12,2.5,16,2.6,15,2.7,15
2013/3/21 8:13,2.6,1,2.6,15,4.8,16
2013/3/21 8:14,2.4,1,2.6,15,4.8,16
2013/3/21 8:15,2.6,16,2.6,15,7,14
2013/3/21 8:16,2.7,16,2.7,15,6.7,16
2013/3/21 8:17,2.7,16,2.7,15,6.2,15
2013/3/21 8:18,2.6,16,2.7,15,6.1,15
2013/3/21 8:19,2.7,16,2.7,16,5.6,15
2013/3/21 8:20,2.9,16,2.9,16,4.7,16
2013/3/21 8:21,2.8,16,2.9,16,2.2,2
2013/3/21 8:22,3,16,3,16,1.6,16
2013/3/21 8:23,3,16,3,16,1.6,16
2013/3/21 8:24,3,16,3,16,1.1,2
2013/3/21 8:25,2.7,16,3,16,0.9,5
2013/3/21 8:26,2.7,16,2.7,16,5.4,15
2013/3/21 8:27,2.4,1,2.4,16,7.7,16
2013/3/21 8:28,2.4,1,2.4,16,7.9,15
2013/3/21 8:30,2.3,1,2.3,16,2,15
2013/3/21 8:31,2.7,16,2.7,16,3.9,15
2013/3/21 8:32,3.2,16,3.2,16,4.7,15
2013/3/21 8:33,3.1,16,3.1,16,4.4,15
2013/3/21 8:35,3.7,16,3.7,16,1.9,3
2013/3/21 8:36,3.5,16,3.6,16,2.4,1
2013/3/21 8:37,3.2,16,3.5,16,1.6,2
2013/3/21 8:38,2.6,15,3.2,16,1.6,13
2013/3/21 8:39,1.9,15,2,16,3.2,15
2013/3/21 8:40,1.9,16,1.9,16,3.2,15
2013/3/21 8:41,2,15,2.1,16,2.1,12
2013/3/21 8:42,1.9,15,2.1,16,2.5,11
2013/3/21 8:43,1.8,14,1.8,16,1.5,16
2013/3/21 8:44,1.7,14,1.8,16,2.1,15
2013/3/21 8:45,1.9,14,1.9,16,3.9,16
2013/3/21 8:46,1.9,14,1.9,16,5.6,15
2013/3/21 8:47,1.9,13,2,16,2.7,13
2013/3/21 8:48,2,13,2,16,1.8,14
2013/3/21 8:49,2,13,2,16,3,2
2013/3/21 8:50,2,14,2,16,3.3,2
2013/3/21 8:51,1.9,14,2,15,4.3,15
2013/3/21 8:53,1.9,15,1.9,14,2.5,16
2013/3/21 8:54,1.9,15,1.9,14,1.8,5
2013/3/21 8:55,1.8,16,1.8,14,2.2,4
2013/3/21 8:56,1.7,16,1.8,14,2.5,15
2013/3/21 8:57,1.8,16,1.8,13,2.9,1
2013/3/21 8:58,2,16,2,13,4.2,15
2013/3/21 8:59,2.2,16,2.2,16,4.7,14
2013/3/21 9:00,2.2,16,2.2,16,5.5,15
2013/3/21 9:01,2.4,16,2.4,16,4.3,15
2013/3/21 9:02,2.3,16,2.4,16,3.3,14
2013/3/21 9:03,2.1,16,2.2,16,2.4,2
2013/3/21 9:04,2,16,2.1,16,2.7,15
2013/3/21 9:05,2,16,2.1,16,3.9,1
2013/3/21 9:06,2,16,2,16,2.7,1
2013/3/21 9:07,1.8,16,2,16,1.1,16
2013/3/21 9:08,1.8,16,1.8,16,3.7,14
2013/3/21 9:09,1.9,16,1.9,16,6.9,15
2013/3/21 9:10,1.9,16,1.9,16,5.8,1
2013/3/21 9:11,1.9,16,1.9,16,4.8,15
2013/3/21 9:12,1.9,16,1.9,16,3.5,16
2013/3/21 9:13,2.1,16,2.1,16,6.5,16
2013/3/21 9:14,2.3,16,2.3,16,5.7,15
2013/3/21 9:15,2.3,16,2.3,16,5,15
2013/3/21 9:16,2.4,15,2.4,15,7.7,15
2013/3/21 9:17,2.7,15,2.7,15,6.9,15
2013/3/21 9:18,2.8,15,2.8,15,5.6,14
2013/3/21 9:19,3,15,3,15,9.5,16
2013/3/21 9:20,3.4,15,3.4,15,10.9,14
2013/3/21 9:21,3.7,15,3.7,15,8.2,14
2013/3/21 9:22,3.8,15,3.8,15,5.2,15
2013/3/21 9:23,3.8,15,3.8,15,4.1,16
2013/3/21 9:24,3.9,15,3.9,15,10.6,15
2013/3/21 9:25,4.1,15,4.1,15,6.8,2
2013/3/21 9:26,4.4,15,4.4,15,9.1,16
2013/3/21 9:27,4.6,15,4.6,15,10.1,16
2013/3/21 9:28,4.7,15,4.7,15,7,16
2013/3/21 9:29,4.4,15,4.7,15,4.2,15
2013/3/21 9:30,4.1,16,4.4,15,7.4,15
2013/3/21 9:31,3.9,16,4,15,5.2,13
2013/3/21 9:32,3.9,15,3.9,15,7.6,15
2013/3/21 9:33,4.3,16,4.3,15,9.5,15
2013/3/21 9:34,4.3,16,4.4,15,7.7,16
2013/3/21 9:35,4.3,16,4.4,15,6.8,16
2013/3/21 9:36,4,16,4.3,15,7.4,15
2013/3/21 9:37,4.2,16,4.2,15,9.9,15
2013/3/21 9:38,4.3,16,4.3,15,9.4,16
2013/3/21 9:39,4.7,16,4.7,16,10.5,15
2013/3/21 9:40,4.8,16,4.8,16,8.2,15
2013/3/21 9:41,5,16,5,16,9.9,15
2013/3/21 9:42,4.9,16,5,16,5.8,16
2013/3/21 9:43,4.9,16,4.9,16,14.2,16
2013/3/21 9:44,5,16,5,16,8.3,1
2013/3/21 9:45,4.9,16,4.9,16,4.8,3
2013/3/21 9:46,4.9,16,4.9,16,5,2
2013/3/21 9:47,4.6,16,4.9,16,6.9,16
2013/3/21 9:48,4.4,16,4.5,16,5.1,1
2013/3/21 9:49,3.9,16,4.2,16,6.4,15
2013/3/21 9:50,3.9,16,3.9,16,8.1,16
2013/3/21 9:51,3.6,16,3.8,16,4.9,16
2013/3/21 9:52,3.7,16,3.7,16,7.8,16
2013/3/21 9:53,3.4,16,3.7,16,7.8,15
2013/3/21 9:54,3.3,16,3.3,16,5.8,14
2013/3/21 9:55,3.4,16,3.4,16,6.8,16
2013/3/21 9:56,3.4,16,3.4,16,7,1
2013/3/21 9:57,3.6,15,3.6,16,10.2,16
2013/3/21 9:58,3.9,15,3.9,16,8.4,15
2013/3/21 9:59,4.1,15,4.1,15,9.8,1
2013/3/21 10:00,4.1,16,4.2,15,7.9,16
2013/3/21 10:01,4.3,16,4.3,16,6.2,16
2013/3/21 10:02,4.3,16,4.3,16,5.4,16
2013/3/21 10:03,4.3,16,4.3,16,7.5,14
2013/3/21 10:04,4.3,16,4.5,16,7.7,14
2013/3/21 10:05,4.2,16,4.3,16,5.4,16
2013/3/21 10:06,4.2,16,4.2,16,5,15
2013/3/21 10:07,4,16,4.2,16,7.7,15
2013/3/21 10:08,3.7,15,4,16,5.1,15
2013/3/21 10:09,3.6,15,3.7,16,6.8,15
2013/3/21 10:10,3.4,15,3.5,16,2.2,15
2013/3/21 10:11,3.3,15,3.4,16,4.1,16
2013/3/21 10:12,3.4,15,3.4,16,8.5,14
2013/3/21 10:13,3.5,15,3.5,16,9.2,15
2013/3/21 10:14,3.7,15,3.7,16,8.3,15
2013/3/21 10:15,3.8,15,3.8,16,6.3,14
2013/3/21 10:16,3.8,15,3.9,16,5.2,15
2013/3/21 10:17,3.5,15,3.8,16,4.2,14
2013/3/21 10:18,3.4,15,3.5,15,1.3,10
2013/3/21 10:19,3.3,14,3.4,15,4.4,11
2013/3/21 10:20,3.2,14,3.3,15,2.5,12
2013/3/21 10:21,3.2,14,3.3,15,3.3,13
2013/3/21 10:22,2.9,14,3.2,15,4.9,15
2013/3/21 10:23,2.7,14,2.9,15,4.9,16
2013/3/21 10:24,2.5,14,2.6,15,7.9,14
2013/3/21 10:25,2.7,14,2.7,15,9.4,15
2013/3/21 10:26,2.7,14,2.7,15,7.8,14
2013/3/21 10:27,3,14,3,15,9.7,16
2013/3/21 10:28,3.2,14,3.2,14,7.1,14
2013/3/21 10:29,3.5,15,3.5,15,9.8,16
2013/3/21 10:30,4.2,15,4.2,15,12.2,15
2013/3/21 10:31,4.7,15,4.7,15,11.7,16
2013/3/21 10:32,4.8,15,4.8,15,6.1,16
2013/3/21 10:33,4.8,15,4.8,15,3.9,1
2013/3/21 10:34,4.6,15,4.8,15,4.1,12
2013/3/21 10:35,4.3,15,4.5,15,6.7,15
2013/3/21 10:36,4.5,15,4.5,15,8.5,14
2013/3/21 10:37,4.3,15,4.5,15,5.5,1
2013/3/21 10:38,4.7,15,4.7,15,10,15
2013/3/21 10:39,4.5,15,4.7,15,7.5,16
2013/3/21 10:40,4.1,15,4.4,15,6.8,16
2013/3/21 10:41,3.7,15,4.1,15,5,14
2013/3/21 10:42,3.9,15,3.9,15,9.2,15
2013/3/21 10:43,3.9,15,3.9,15,4.4,15
2013/3/21 10:44,3.9,15,3.9,15,2.5,1
2013/3/21 10:45,3.9,16,4,15,4.4,1
2013/3/21 10:46,3.4,16,3.8,15,3.6,16
2013/3/21 10:47,3.3,16,3.4,15,3.7,16
2013/3/21 10:48,3,16,3.4,15,5.8,16
2013/3/21 10:49,2.7,16,2.9,15,3.5,16
2013/3/21 10:50,2.6,16,2.7,15,5.1,16
2013/3/21 10:51,2.5,16,2.6,15,4.1,16
2013/3/21 10:52,2.5,16,2.5,15,8.5,16
2013/3/21 10:53,2.5,16,2.5,15,5.8,16
2013/3/21 10:54,2.8,16,2.8,15,7,1
2013/3/21 10:55,2.8,16,2.9,16,5.5,1
2013/3/21 10:56,2.9,16,2.9,16,3.2,3
2013/3/21 10:57,2.9,16,2.9,16,3.1,15
2013/3/21 10:58,2.8,16,2.9,16,5.5,15